Tracking 18823 objects as of 23-October-2017
HD Live streaming from Space Station
objects crossing your sky now

COSMOS 2345

Track COSMOS 2345 now!
COSMOS 2345 is classified as:


NORAD ID: 24894
Int'l Code: 1997-041A
Perigee: 35,112.0 km
Apogee: 36,536.8 km
Inclination: 13.7 °
Period: 1,437.7 minutes
Semi major axis: 42195 km
RCS: 5.0119 m2 (large)
Launch date: August 14, 1997
Source: Commonwealth of Independent States (former USSR) (CIS)
Launch site: TYURATAM MISSILE AND SPACE COMPLEX (TTMTR)
aabbcc
Your satellite tracking list
Your tracking list is empty





NASA's NSSDC Master Catalog

Two Line Element Set (TLE):
1 24894U 97041A   17295.33081368 -.00000330  00000-0  00000+0 0  9990
2 24894  13.6952  24.0076 0168825 220.5602 187.4201  1.00162557 73955
Source of the keplerian elements: AFSPC